EW3079 Weather Reports


time (UTC)temp
C
wind
direction
speed
KPH
gust
KPH
rain 1hr
cm
rain 24hr
cm
rain mn
cm
humidity
%
barometer
mb
20260507031125 14 327 3.2 6.4 0.00 0.51 0.51 88 1008.5
20260507030212 14 12 1.6 6.4 0.00 0.51 0.51 86 1008.3
20260507030144 14 24 1.6 6.4 0.00 0.51 0.51 86 1008.3
20260507025123 14 327 3.2 8.0 0.00 0.51 0.51 87 1008.3
20260507024123 14 282 3.2 9.7 0.03 0.51 0.51 86 1008.0
20260507023126 14 346 4.8 11.3 0.03 0.51 0.51 86 1008.2
20260507022123 14 319 4.8 11.3 0.03 0.51 0.51 87 1007.9
20260507021123 14 320 3.2 8.0 0.03 0.51 0.51 89 1008.0
20260507020123 14 302 3.2 8.0 0.03 0.51 0.51 89 1008.0
20260507015144 14 325 3.2 6.4 0.03 0.51 0.51 89 1008.2
20260507014144 15 344 4.8 9.7 0.00 0.48 0.48 88 1008.3
20260507013123 15 306 4.8 11.3 0.00 0.48 0.48 87 1008.4
20260507012147 15 310 4.8 8.0 0.00 0.48 0.48 89 1008.1
20260507011123 16 351 4.8 8.0 0.00 0.48 0.48 88 1008.1
20260507010123 16 315 4.8 9.7 0.00 0.48 0.48 88 1008.1
20260507005123 16 319 4.8 9.7 0.00 0.48 0.48 89 1007.8
20260507004123 16 274 6.4 8.0 0.00 0.48 0.48 90 1007.8
20260507003123 17 295 4.8 12.9 0.00 0.48 0.48 91 1007.6
20260507002123 17 259 3.2 8.0 0.00 0.48 0.48 91 1007.0
20260507001124 17 263 3.2 6.4 0.00 0.48 0.48 93 1006.8
20260507000123 17 256 3.2 4.8 0.00 0.48 0.48 93 1006.8
20260506235147 17 255 3.2 4.8 0.00 0.48 0.48 93 1006.4
20260506234123 17 258 3.2 4.8 0.00 0.48 0.48 93 1006.3
20260506233144 18 254 3.2 6.4 0.00 0.48 0.48 92 1006.4
20260506232123 18 265 3.2 6.4 0.00 0.48 0.48 91 1006.3
20260506231123 18 255 1.6 4.8 0.00 0.48 0.48 91 1006.3
20260506230125 18 283 1.6 6.4 0.00 0.48 0.48 90 1006.3
20260506225123 18 257 1.6 4.8 0.00 0.48 0.48 90 1006.0
20260506224147 18 239 1.6 4.8 0.00 0.48 0.48 88 1006.0
20260506223123 18 266 0.0 3.2 0.00 0.48 0.48 89 1006.0
20260506222127 18 219 0.0 4.8 0.00 0.48 0.48 90 1006.1
20260506221123 18 270 0.0 0.0 0.00 0.48 0.48 91 1005.6
20260506220144 18 270 0.0 0.0 0.00 0.48 0.48 89 1005.6
20260506215123 19 225 0.0 0.0 0.00 0.48 0.48 88 1005.7
20260506214123 19 225 0.0 0.0 0.00 0.48 0.48 88 1005.8
20260506213123 19 244 0.0 4.8 0.00 0.48 0.48 87 1005.6
20260506212125 20 244 3.2 6.4 0.00 0.48 0.48 84 1005.4
20260506211123 19 242 4.8 6.4 0.00 0.48 0.48 84 1005.4
20260506210123 19 243 4.8 8.0 0.00 0.48 0.48 85 1005.4
20260506205123 19 241 4.8 6.4 0.00 0.48 0.48 85 1005.2
20260506204123 19 239 4.8 6.4 0.00 0.48 0.48 85 1005.3
20260506203144 19 240 6.4 8.0 0.00 0.48 0.48 84 1005.5
20260506202127 19 234 4.8 8.0 0.00 0.48 0.48 85 1005.5
20260506201125 19 225 3.2 6.4 0.00 0.48 0.48 85 1005.4
20260506200123 19 239 3.2 4.8 0.00 0.48 0.48 85 1005.4
20260506195144 19 241 3.2 6.4 0.00 0.48 0.48 85 1005.4
20260506194123 18 234 4.8 8.0 0.00 0.48 0.48 85 1005.6
20260506193123 18 238 6.4 8.0 0.00 0.48 0.48 86 1005.7
20260506192123 18 229 6.4 11.3 0.00 0.48 0.48 86 1005.6
20260506191127 18 220 6.4 11.3 0.00 0.48 0.48 87 1005.7
20260506190147 18 223 6.4 9.7 0.00 0.48 0.48 87 1005.7
20260506185123 18 226 4.8 6.4 0.00 0.48 0.48 89 1005.8
20260506184123 18 231 4.8 8.0 0.00 0.48 0.48 89 1005.8
20260506183126 17 228 3.2 8.0 0.00 0.48 0.48 91 1005.9
20260506182123 17 238 4.8 6.4 0.00 0.48 0.48 92 1006.1
20260506181144 17 242 3.2 6.4 0.00 0.48 0.48 94 1006.2
20260506180126 16 237 3.2 6.4 0.00 0.48 0.48 96 1006.2
20260506175123 16 243 3.2 4.8 0.00 0.48 0.48 96 1006.2
20260506174123 16 228 3.2 6.4 0.00 0.48 0.48 97 1006.3
20260506173123 16 237 3.2 6.4 0.00 0.48 0.48 97 1006.3
20260506172148 16 231 4.8 6.4 0.00 0.48 0.48 98 1006.3
20260506171123 16 243 4.8 6.4 0.00 0.48 0.48 98 1006.3
20260506170123 16 240 4.8 6.4 0.00 0.48 0.48 98 1006.1
20260506165125 16 230 1.6 4.8 0.00 0.48 0.48 99 1006.1
20260506164123 16 269 1.6 4.8 0.03 0.48 0.48 99 1006.1
20260506163123 16 257 1.6 4.8 0.03 0.48 0.48 99 1006.3
20260506162144 16 232 1.6 6.4 0.05 0.48 0.48 99 1006.5
20260506161123 16 196 0.0 4.8 0.08 0.48 0.48 99 1006.5
20260506160123 16 278 1.6 6.4 0.13 0.48 0.48 99 1006.4
20260506155123 16 256 1.6 4.8 0.15 0.48 0.48 99 1006.3
20260506154123 16 321 1.6 6.4 0.15 0.46 0.46 99 1005.6
20260506153144 16 289 1.6 4.8 0.18 0.46 0.46 99 1006.2
20260506152123 16 134 0.0 4.8 0.18 0.43 0.43 99 1007.0
20260506151123 16 239 1.6 4.8 0.15 0.41 0.41 99 1007.0
20260506150123 16 140 0.0 4.8 0.15 0.36 0.36 98 1007.0
20260506145123 16 239 1.6 6.4 0.15 0.33 0.33 98 1007.2
20260506144123 16 247 3.2 8.0 0.20 0.30 0.30 97 1007.2
20260506143123 16 272 1.6 4.8 0.20 0.28 0.28 97 1006.8
20260506142123 16 250 1.6 6.4 0.20 0.25 0.25 97 1006.7
20260506141144 16 315 1.6 6.4 0.20 0.25 0.25 97 1006.7
20260506140123 16 281 0.0 3.2 0.15 0.20 0.20 97 1006.8
20260506135123 16 232 1.6 4.8 0.15 0.18 0.18 96 1006.8
20260506134123 16 17 1.6 3.2 0.08 0.10 0.10 95 1006.9
20260506133124 16 270 0.0 0.0 0.05 0.08 0.08 94 1006.9
20260506132144 16 250 0.0 3.2 0.05 0.05 0.05 92 1006.8
20260506131123 16 270 0.0 3.2 0.05 0.05 0.05 91 1006.9
20260506130123 16 231 1.6 6.4 0.05 0.05 0.05 90 1006.9
20260506125123 16 221 3.2 6.4 0.03 0.03 0.03 89 1007.1
20260506124123 16 234 3.2 4.8 0.03 0.03 0.03 87 1007.2
20260506123144 16 230 3.2 4.8 0.03 0.03 0.03 86 1007.3
20260506122122 16 228 4.8 8.0 0.00 0.00 0.00 86 1007.3
20260506121123 16 228 4.8 6.4 0.00 0.00 0.00 86 1007.2
20260506120123 17 223 4.8 6.4 0.00 0.00 0.00 84 1007.2
20260506115123 17 236 4.8 8.0 0.00 0.00 0.00 82 1006.9
20260506114123 17 236 3.2 8.0 0.00 0.00 0.00 80 1006.7
20260506113123 18 272 3.2 11.3 0.00 0.00 0.00 78 1006.7
20260506112123 18 250 3.2 6.4 0.00 0.00 0.00 78 1006.6
20260506111122 18 234 4.8 9.7 0.00 0.00 0.00 77 1006.5
20260506110123 18 223 3.2 8.0 0.00 0.00 0.00 76 1006.5
20260506105144 18 238 3.2 6.4 0.00 0.00 0.00 75 1006.3
20260506104123 18 246 3.2 4.8 0.00 0.00 0.00 75 1006.3
20260506103123 18 254 3.2 6.4 0.00 0.00 0.00 75 1006.1
20260506102143 18 244 3.2 8.0 0.00 0.00 0.00 75 1006.0
20260506101123 18 248 3.2 8.0 0.00 0.00 0.00 74 1005.8
20260506100123 18 223 4.8 8.0 0.00 0.00 0.00 74 1005.8
20260506095144 18 256 3.2 11.3 0.00 0.00 0.00 74 1005.9
20260506094123 18 258 3.2 6.4 0.00 0.00 0.00 74 1005.8
20260506093123 18 335 1.6 4.8 0.00 0.00 0.00 74 1006.0
20260506092123 18 265 1.6 4.8 0.00 0.00 0.00 74 1006.1
20260506091123 18 296 1.6 4.8 0.00 0.00 0.00 73 1006.3
20260506090143 18 256 1.6 6.4 0.00 0.00 0.00 73 1006.3
20260506085123 18 323 1.6 4.8 0.00 0.00 0.00 73 1006.2
20260506084123 18 283 1.6 4.8 0.00 0.00 0.00 72 1006.2
20260506083123 19 281 1.6 6.4 0.00 0.00 0.00 71 1006.3
20260506082123 19 260 3.2 4.8 0.00 0.00 0.00 71 1006.1
20260506081123 20 253 3.2 6.4 0.00 0.00 0.00 69 1006.2
20260506080123 20 247 3.2 6.4 0.00 0.00 0.00 68 1006.2
20260506073123 20 261 3.2 8.0 0.00 0.00 0.00 67 1006.4
20260506072122 20 252 3.2 9.7 0.00 0.00 0.00 66 1006.4
20260506071123 20 232 4.8 11.3 0.00 0.00 0.00 65 1006.5
20260506070123 20 238 3.2 6.4 0.00 0.00 0.00 65 1006.5
20260506062123 20 241 3.2 6.4 0.00 0.00 0.00 64 1007.1
20260506061123 20 214 3.2 8.0 0.00 0.00 0.00 64 1007.2
20260506060122 20 232 4.8 9.7 0.00 0.00 0.00 64 1007.2
20260506051123 19 297 1.6 4.8 0.00 0.00 0.00 63 1007.4
20260506050122 19 347 1.6 4.8 0.00 0.00 0.00 63 1007.4
20260506045123 19 37 0.0 4.8 0.00 0.00 0.00 63 1007.5
20260506044144 19 257 1.6 4.8 0.00 0.00 0.00 62 1007.4
20260506043123 19 262 1.6 4.8 0.00 0.00 0.00 62 1007.5
20260506042123 19 308 1.6 6.4 0.00 0.00 0.00 61 1007.5
20260506041123 19 8 1.6 4.8 0.00 0.00 0.00 60 1007.5
20260506040122 19 17 1.6 4.8 0.00 0.00 0.00 60 1007.5
20260506035122 18 8 1.6 4.8 0.00 0.00 0.00 59 1007.6
20260506034143 18 23 0.0 3.2 0.00 0.00 0.00 58 1007.6
20260506033123 19 27 0.0 3.2 0.00 0.00 0.00 57 1007.4
20260506032123 19 359 0.0 3.2 0.00 0.00 0.00 57 1007.6